Regional Weather Roundup
Issued by NWS

Home | Current Version | Previous Version | Graphics & Text | Print | Product List | Glossary On
Versions: 1 2 3 4 5 6 7 8 9 10 11 12 13 14 15 16 17 18 19 20 21 22 23 24 25 26 27 28 29 30 31 32 33 34 35 36 37 38 39 40 41 42 43 44 45 46 47 48 49 50
000
ASUS43 KLOT 261508
RWRIL

ILLINOIS REGIONAL WEATHER ROUNDUP
NATIONAL WEATHER SERVICE CHICAGO/ROMEOVILLE IL
1000 AM CDT MON SEP 26 2016

NOTE: "FAIR" INDICATES FEW OR NO CLOUDS BELOW 12,000 FEET WITH NO
SIGNIFICANT WEATHER AND/OR OBSTRUCTIONS TO VISIBILITY.

* THESE STATIONS ARE NOT UNDER NWS QUALITY CONTROL. THEY ALSO MAY NOT
  REPORT WEATHER SUCH AS PRECIPITATION OR FOG.

ILZ001-002-007-009-015-016-024-261600-
NORTHWEST ILLINOIS

CITY           SKY/WX    TMP DP  RH WIND       PRES   REMARKS
MOLINE         SUNNY     63  42  46 W20G25    30.09R
STERLING*      SUNNY     63  44  50 W16       30.05S
SAVANNA*       SUNNY     61  42  49 W15       30.05S
$$

ILZ003-004-008-010-011-017-018-261600-
NORTH CENTRAL ILLINOIS

CITY           SKY/WX    TMP DP  RH WIND       PRES   REMARKS
ROCKFORD       SUNNY     61  44  53 W15G25    30.04R
FREEPORT*      SUNNY     59  42  53 W18G24    30.04S
ROCHELLE*      SUNNY     61  46  57 W17       30.04S
DE KALB*       SUNNY     61  45  56 W16G23    30.03S
$$

ILZ005-006-012>014-019>023-261600-
NORTHEAST ILLINOIS

CITY           SKY/WX    TMP DP  RH WIND       PRES   REMARKS
CHICAGO-OHARE  MOSUNNY   63  45  51 W18       29.99S
CHICAGO-MIDWAY MOSUNNY   65  45  48 W15       30.00S
AURORA         SUNNY     64  44  48 W20       30.02S
LANSING*       SUNNY     64  50  61 W13G18    30.01F
JOLIET*        SUNNY     65  46  49 W13       30.03S
WAUKEGAN       SUNNY     62  45  53 W9G18     29.95F
DUPAGE AIRPORT SUNNY     63  44  50 W17       30.00F
KANKAKEE*      SUNNY     64  47  54 W15       30.06S
WHEELING       SUNNY     62  44  51 W14G22    29.99S
MORRIS*        SUNNY     65  41  42 W20G26    30.03S
ROMEOVILLE*    SUNNY     64  49  58 W12G18    30.02F
NORTHERLY ISL    N/A     63  43  48 W12         N/A
$$

LMZ740>746-261600-
SOUTHERN LAKE MICHIGAN

STATION/POSITION SKY/WX   TEMP    WIND        PRES    VSBY  WAVE
                          AIR SEA DIR/SP/G                  HT/PER
                          (F)     (DEG/KT/KT) (MB)    (MI)  (FT/S)
SOUTHERN BUOY              61 71  250/ 21/ 25 1013.1R         5/ 5
WILMETTE HARBOR            62 63  290/ 12/ 17   N/A           2/ 2
HARRISON CRIB              61     260/ 18/ 20   N/A
BURNHAM HARBOR             63     270/ 13       N/A
CALUMET HARBOR             60     240/  7/ 14 1015.7S
BURNS HARBOR               61     260/ 16/ 20 1016.6R
MICHIGAN CITY              61     230/ 21/ 23   N/A
MICHIGAN CITY 6N           63 66  270/ 17/ 21   N/A           4/ 5
ST. JOSEPH                 64 65  270/ 19/ 29 1014.8F         7/ 6
$$

ILZ025>027-034>036-040-047-049-050-058-095>099-261600-
WEST-CENTRAL ILLINOIS

CITY           SKY/WX    TMP DP  RH WIND       PRES   REMARKS
QUINCY         SUNNY     64  43  46 NW10      30.17R
GALESBURG*     SUNNY     63  41  44 W14G23    30.12R
MACOMB*        SUNNY     65  40  41 W12G22    30.16S
JACKSONVILLE*  SUNNY     65  46  49 W9        30.16R
PITTSFIELD*    SUNNY     64  48  55 W8        30.18S
$$

ILZ028>032-037-038-041>044-048-051>054-059>061-261600-
CENTRAL ILLINOIS

CITY           SKY/WX    TMP DP  RH WIND       PRES   REMARKS
PONTIAC        SUNNY     67  43  42 W17G24    30.07F
BLOOMINGTON    SUNNY     64  46  52 W10       30.10F
DECATUR        MOSUNNY   65  49  56 NW9       30.13R
PEORIA         SUNNY     65  42  43 W13G21    30.11R
LACON*         SUNNY     65  38  37 W15G21    30.08S
SPRINGFIELD    SUNNY     67  47  48 NW10      30.14S
TAYLORVILLE    MOSUNNY   65  48  54 NW13G18   30.15R
$$

ILZ033-039-045-046-055>057-062-063-261600-
EAST-CENTRAL ILLINOIS

CITY           SKY/WX    TMP DP  RH WIND       PRES   REMARKS
CHAMPAIGN      CLOUDY    59  52  77 W12       30.11R
RANTOUL*       CLOUDY    63  54  74 W9        30.10S
MATTOON        CLOUDY    61  53  75 NW14      30.12R
PARIS*         PTSUNNY   61  56  84 W6        30.12R
$$

ILZ079-100>102-261600-
SOUTHWEST ILLINOIS

CITY           SKY/WX    TMP DP  RH WIND       PRES   REMARKS
ALTON          MOSUNNY   63  54  72 NW9       30.18R
BELLEVILLE     PTSUNNY   64  57  80 NW7       30.16R
CAHOKIA*       CLOUDY    66  52  60 NW9       30.17S
SPARTA*        CLOUDY    64  59  84 NW8       30.18S
$$

ILZ064>066-069>071-074>076-080>082-084>086-088>090-092>094-261600-
SOUTH-CENTRAL ILLINOIS

CITY           SKY/WX    TMP DP  RH WIND       PRES   REMARKS
CARBONDALE     CLOUDY    61  59  93 N8        30.17S
CAIRO*         CLOUDY    62  55  78 N8        30.18R
EFFINGHAM*     CLOUDY    63  58  82 W8        30.15R
MARION         PTSUNNY   63  59  88 N7        30.17S
MT. VERNON     CLOUDY    63  54  72 CALM      30.16S
CENTRALIA*     CLOUDY    64  60  87 NW7       30.15S
SALEM*         CLOUDY    64  57  78 NW8       30.15S
METROPOLIS*    CLOUDY    63  55  75 N10       30.17R
$$

ILZ067-068-072-073-078-083-087-091-261600-
SOUTHEAST ILLINOIS

CITY           SKY/WX    TMP DP  RH WIND       PRES   REMARKS
LAWRENCEVILLE  PTSUNNY   62  57  83 W9        30.14R
FLORA*         PTSUNNY   64  58  82 NW8       30.15R
FAIRFIELD*       N/A     62  58  88 CALM      30.14S
HARRISBURG*    PTSUNNY   61  58  91 NW8       30.16F
ROBINSON*      PTSUNNY   60  57  90 W9        30.13S
CARMI*         PTSUNNY   61  59  93 NW6       30.14S
$$

ABBREVIATIONS USED IN REMARKS
   TC - TEMPERATURE IN CELSIUS
  WCI - WIND CHILL INDEX
   HX - HEAT INDEX
  VSB - VISIBILITY
$$





USA.gov is the U.S. government's official web portal to all federal, state and local government web resources and services.